[[{"header":{"parameterUnit":"m.s-1","parameterCategory":1,"la1":30.2991,"la2":30.254,"lo1":-89.0895,"lo2":-89.0444,"dy":0.0017,"dx":0.0017,"nx":28,"ny":28,"refTime":"2025-05-30T09:00:00:Z","depth":0,"parameterNumber":2,"parameterNumberName":"U-component_of_WINDS"},"data":[0,0,0,0,0,0,0,0,0,0,0,0,0,0,0,0,0,0,0,0,0,0,0,0,0,0,0,0,0,0,0,0,0,0,0,0,0,0,0,0,0,0,0,0,0,0,0,0,0,0,0,0,0,0,0,0,0,0,-1.4386,-1.4386,0,-1.4355,-1.4355,-1.4354,-1.433,-1.4329,-1.4329,-1.4329,-1.4298,-1.4297,-1.4297,0,0,0,0,0,0,0,0,0,0,0,0,0,-1.4424,-1.4423,-1.4386,-1.4386,-1.4385,-1.4355,-1.4355,-1.4354,-1.433,-1.4329,-1.4329,-1.4329,-1.4298,-1.4297,-1.4297,0,0,0,0,0,0,0,0,0,0,0,0,0,-1.4402,-1.4423,-1.4386,-1.437,-1.4368,-1.4355,-1.4355,-1.4354,-1.433,-1.4329,-1.4329,-1.4329,-1.4298,-1.4297,-1.4296,-1.4298,0,0,-1.4294,-1.4293,0,0,0,0,0,0,0,0,-1.4403,-1.44,-1.4372,-1.4371,-1.4369,-1.4346,-1.4357,-1.4336,-1.433,-1.4344,-1.4329,-1.4329,-1.4314,-1.4312,-1.4307,-1.4297,-1.4296,-1.4294,-1.4293,-1.4293,-1.4292,0,0,0,0,0,0,0,-1.4404,-1.4401,-1.4374,-1.4372,-1.437,-1.4363,-1.436,-1.4352,-1.4332,-1.4343,-1.4341,-1.4338,-1.4313,-1.4308,-1.4306,-1.4295,-1.4294,-1.4293,-1.4292,-1.4292,-1.4283,-1.4284,0,0,0,0,0,0,-1.4409,-1.4403,-1.4375,-1.4373,-1.4385,-1.4363,-1.4359,-1.4354,-1.4332,-1.4328,-1.4338,-1.4337,-1.431,-1.4307,-1.4305,-1.4304,-1.4293,-1.4292,-1.4291,-1.4283,-1.4283,-1.4284,0,0,0,0,0,0,-1.4409,-1.4406,-1.4376,-1.4387,-1.4383,-1.4363,-1.4357,-1.4353,-1.4348,-1.4328,-1.4324,-1.4337,-1.4309,-1.4306,-1.43,-1.4303,-1.4292,-1.4291,-1.4283,-1.4283,-1.4283,-1.4304,0,0,0,0,0,0,-1.4411,-1.4407,-1.4408,-1.4388,-1.4383,-1.4372,-1.4357,-1.4353,-1.4346,-1.4344,-1.4326,-1.4322,-1.4309,-1.4301,-1.4299,-1.4302,-1.429,-1.4282,-1.4283,-1.4283,-1.4303,-1.4305,-1.4307,0,0,0,0,0,-1.4412,-1.4415,-1.4408,-1.4405,-1.4383,-1.4372,-1.4369,-1.4354,-1.4347,-1.4347,-1.4334,-1.4323,-1.4303,-1.4301,-1.4298,-1.43,-1.4282,-1.4283,-1.4283,-1.4302,-1.4305,-1.4307,0,0,0,0,0,0,-1.4437,-1.4412,-1.4404,-1.4401,-1.4389,-1.4368,-1.4368,-1.4357,-1.4347,-1.4345,-1.4326,-1.4322,-1.4318,-1.4308,-1.4306,-1.43,-1.4291,-1.4291,-1.4306,-1.4309,-1.4311,-1.4313,-1.4289,0,0,0,0,0,-1.4442,-1.4435,-1.4414,-1.4413,-1.4407,-1.4389,-1.4384,-1.4372,-1.4359,-1.4354,-1.434,-1.4328,-1.4319,-1.4313,-1.4304,-1.4302,-1.4297,-1.4302,-1.4304,-1.4306,-1.4306,-1.4303,-1.4304,-1.4286,-1.4286,-1.4286,0,0,-1.4452,-1.4438,-1.4435,-1.4418,-1.4407,-1.44,-1.4385,-1.4378,-1.4373,-1.4353,-1.4346,-1.4335,-1.432,-1.4316,-1.4313,-1.4308,-1.431,-1.4307,-1.4308,-1.4307,-1.4303,-1.4305,-1.4307,-1.4286,-1.4286,-1.4286,0,0,-1.4467,-1.4456,-1.4454,-1.4443,-1.4427,-1.4414,-1.4413,-1.4394,-1.4386,-1.4378,-1.4363,-1.4356,-1.4341,-1.433,-1.4323,-1.4332,-1.4321,-1.433,-1.434,-1.4337,-1.4339,-1.434,-1.4342,-1.4343,-1.433,-1.433,-1.433,0,-1.4483,-1.4471,-1.4454,-1.4448,-1.444,-1.4421,-1.4418,-1.4408,-1.439,-1.4385,-1.438,-1.4359,-1.4348,-1.4339,-1.4342,-1.4337,-1.4335,-1.4332,-1.434,-1.4341,-1.4342,-1.4344,-1.4345,-1.4331,-1.4331,-1.4331,-1.4331,0,-1.449,-1.4482,-1.4482,-1.4464,-1.4456,-1.4452,-1.4433,-1.4427,-1.4417,-1.4404,-1.4396,-1.4381,-1.4368,-1.4365,-1.4355,-1.4355,-1.4352,-1.4344,-1.4334,-1.4345,-1.4346,-1.4347,-1.4333,-1.4333,-1.4332,-1.4332,0,0,-1.4521,-1.4492,-1.4492,-1.4483,-1.4463,-1.4456,-1.445,-1.4437,-1.4432,-1.4419,-1.4413,-1.44,-1.4391,-1.4383,-1.4371,-1.4369,-1.4375,-1.436,-1.4359,-1.4363,-1.4373,-1.4379,-1.438,-1.4368,-1.4368,-1.4368,-1.4374,0,-1.4532,-1.452,-1.4503,-1.4497,-1.4489,-1.447,-1.4465,-1.4452,-1.444,-1.4431,-1.4418,-1.4408,-1.4398,-1.4393,-1.4389,-1.4375,-1.4377,-1.4375,-1.4361,-1.4361,-1.4365,-1.4381,-1.4388,-1.4395,-1.4375,-1.4375,-1.4375,0,-1.4544,-1.4531,-1.4524,-1.4503,-1.4499,-1.4495,-1.448,-1.4472,-1.4456,-1.4448,-1.4437,-1.4424,-1.4416,-1.4407,-1.4396,-1.4394,-1.4388,-1.438,-1.438,-1.4378,-1.4368,-1.4379,-1.4397,-1.4397,-1.4376,-1.4376,-1.4375,0,-1.4565,-1.4547,-1.454,-1.4533,-1.4509,-1.4506,-1.4495,-1.4479,-1.4471,-1.4459,-1.4453,-1.444,-1.4432,-1.4422,-1.4405,-1.4401,-1.4395,-1.4385,-1.4387,-1.4387,-1.4386,-1.4386,-1.4402,-1.4383,-1.4383,-1.4383,-1.4383,0,-1.4579,-1.4575,-1.4549,-1.4545,-1.4539,-1.452,-1.4515,-1.4503,-1.4488,-1.4481,-1.4464,-1.4457,-1.4435,-1.4426,-1.4413,-1.4404,-1.4401,-1.4393,-1.439,-1.4395,-1.4396,-1.439,-1.4389,-1.4383,-1.4383,-1.4383,-1.4383,0,-1.4603,-1.4585,-1.4576,-1.4553,-1.4547,-1.4544,-1.4525,-1.4519,-1.4506,-1.4496,-1.4493,-1.4472,-1.446,-1.4442,-1.4424,-1.4415,-1.4408,-1.4403,-1.4414,-1.4411,-1.4414,-1.4413,-1.4426,-1.4426,-1.4408,-1.4408,-1.4408,0,-1.4613,-1.4609,-1.4586,-1.4579,-1.4569,-1.4559,-1.4551,-1.4531,-1.4523,-1.4504,-1.4501,-1.4487,-1.4475,-1.4456,-1.4439,-1.4425,-1.4419,-1.4424,-1.4417,-1.4421,-1.4418,-1.4418,-1.4417,-1.4426,-1.4427,-1.4427,-1.4427,0,-1.4632,-1.4623,-1.4612,-1.4597,-1.4587,-1.4575,-1.4561,-1.4557,-1.4535,-1.4526,-1.4513,-1.4504,-1.4485,-1.4471,-1.4455,-1.4444,-1.4431,-1.4429,-1.4429,-1.4434,-1.4439,-1.4435,-1.4418,-1.4429,-1.4429,-1.4429,-1.4429,-1.4429,-1.4648,-1.4643,-1.4626,-1.4613,-1.4601,-1.4589,-1.4582,-1.4567,-1.4556,-1.4539,-1.4528,-1.4515,-1.4498,-1.4475,-1.4464,-1.4453,-1.4448,-1.4448,-1.4448,-1.4448,-1.4449,-1.4441,-1.445,-1.445,-1.445,-1.445,-1.445,0,-1.4666,-1.4653,-1.4642,-1.4623,-1.4613,-1.4602,-1.4586,-1.4578,-1.4567,-1.4552,-1.454,-1.4524,-1.4511,-1.4492,-1.4477,-1.4472,-1.4465,-1.4468,-1.4468,-1.4465,-1.4455,-1.4456,-1.4473,-1.4473,-1.4473,-1.4473,-1.4473,-1.4473,-1.4673,-1.4664,-1.4653,-1.4637,-1.4625,-1.4612,-1.4604,-1.4592,-1.4579,-1.4562,-1.4551,-1.4538,-1.4522,-1.4505,-1.4491,-1.4486,-1.4481,-1.4485,-1.4478,-1.4469,-1.4466,-1.4464,-1.4466,-1.4484,-1.4484,-1.449,-1.449,-1.449]},{"header":{"parameterUnit":"m.s-1","parameterCategory":1,"la1":30.2991,"la2":30.254,"lo1":-89.0895,"lo2":-89.0444,"dy":0.0017,"dx":0.0017,"nx":28,"ny":28,"refTime":"2025-05-30T09:00:00:Z","depth":0,"parameterNumber":3,"parameterNumberName":"V-component_of_WINDS"},"data":[0,0,0,0,0,0,0,0,0,0,0,0,0,0,0,0,0,0,0,0,0,0,0,0,0,0,0,0,0,0,0,0,0,0,0,0,0,0,0,0,0,0,0,0,0,0,0,0,0,0,0,0,0,0,0,0,0,0,3.084,3.084,0,3.0915,3.0916,3.0917,3.0865,3.0862,3.086,3.0858,3.0933,3.0937,3.0941,0,0,0,0,0,0,0,0,0,0,0,0,0,3.0647,3.0651,3.084,3.0841,3.0842,3.0915,3.0916,3.0917,3.0865,3.0862,3.0859,3.0857,3.0932,3.0937,3.0942,0,0,0,0,0,0,0,0,0,0,0,0,0,3.0727,3.0652,3.0839,3.0824,3.0824,3.0915,3.0916,3.0918,3.0866,3.0862,3.0859,3.0855,3.093,3.0936,3.0943,3.1052,0,0,3.0962,3.0965,0,0,0,0,0,0,0,0,3.0723,3.0735,3.0826,3.0826,3.0825,3.0877,3.0876,3.0963,3.0867,3.085,3.0858,3.0854,3.0917,3.0924,3.0946,3.1056,3.1059,3.0962,3.0966,3.0969,3.0971,0,0,0,0,0,0,0,3.0717,3.0731,3.0869,3.0827,3.0827,3.0813,3.082,3.0892,3.0902,3.0851,3.0847,3.0857,3.0916,3.094,3.0948,3.106,3.0962,3.0968,3.0972,3.0974,3.1262,3.1266,0,0,0,0,0,0,3.0714,3.0727,3.0867,3.0872,3.0764,3.0819,3.0828,3.0864,3.0901,3.0904,3.086,3.0854,3.0931,3.094,3.095,3.108,3.0969,3.0975,3.0978,3.1258,3.1263,3.1267,0,0,0,0,0,0,3.071,3.0727,3.0864,3.0798,3.0815,3.0826,3.0867,3.0867,3.0891,3.0908,3.091,3.0883,3.0929,3.0941,3.1027,3.1082,3.0978,3.0983,3.1254,3.126,3.1265,3.1342,0,0,0,0,0,0,3.0704,3.0725,3.0768,3.08,3.0819,3.0941,3.0871,3.0871,3.0902,3.0896,3.093,3.0932,3.0927,3.1018,3.1033,3.1089,3.0988,3.1249,3.1256,3.1263,3.1334,3.1349,3.1362,0,0,0,0,0,3.0698,3.0786,3.077,3.0788,3.0872,3.0944,3.0955,3.0948,3.0907,3.0949,3.096,3.0931,3.1074,3.1027,3.1044,3.1102,3.1245,3.1254,3.1263,3.1328,3.1347,3.1362,0,0,0,0,0,0,3.076,3.079,3.0773,3.0875,3.0907,3.0935,3.0988,3.0967,3.1012,3.1003,3.0992,3.1,3.109,3.1105,3.1052,3.121,3.1153,3.1165,3.1197,3.1215,3.1228,3.1223,3.0994,0,0,0,0,0,3.0786,3.0843,3.0866,3.0953,3.0971,3.0977,3.1008,3.1,3.1033,3.1046,3.1063,3.1096,3.1147,3.1182,3.1231,3.1336,3.1342,3.1385,3.1399,3.141,3.1421,3.1477,3.1495,3.1296,3.1296,3.1295,0,0,3.084,3.0863,3.09,3.0967,3.0991,3.1049,3.0989,3.1053,3.1096,3.1055,3.1137,3.1151,3.1187,3.1283,3.1326,3.1298,3.1477,3.1421,3.143,3.1435,3.1488,3.1506,3.1523,3.1301,3.13,3.1299,0,0,3.0967,3.0991,3.1066,3.1092,3.1129,3.1133,3.1151,3.1182,3.119,3.1272,3.1243,3.1293,3.1383,3.1409,3.1434,3.1571,3.1545,3.1587,3.166,3.1715,3.173,3.1744,3.1792,3.1809,3.1598,3.1598,3.1598,0,3.1029,3.1116,3.1107,3.1174,3.1204,3.117,3.1246,3.1271,3.1322,3.1343,3.1311,3.1423,3.1444,3.1545,3.1579,3.1601,3.162,3.1583,3.1729,3.1743,3.1756,3.1801,3.1819,3.1603,3.1602,3.1602,3.1601,0,3.119,3.1251,3.1307,3.1358,3.1394,3.1465,3.1465,3.1503,3.1491,3.1498,3.1581,3.1606,3.1659,3.1682,3.1671,3.1782,3.1763,3.1731,3.1673,3.1779,3.1822,3.1839,3.1609,3.1608,3.1606,3.1605,0,0,3.1359,3.1404,3.1425,3.1447,3.1486,3.1532,3.1601,3.1653,3.1685,3.1721,3.1777,3.1854,3.1824,3.1853,3.1844,3.1892,3.1998,3.1853,3.1854,3.1879,3.212,3.2144,3.2164,3.1981,3.1985,3.1987,3.2116,0,3.1488,3.1608,3.1602,3.1714,3.177,3.1738,3.1798,3.1828,3.1836,3.1883,3.1891,3.1945,3.1902,3.1919,3.1965,3.1975,3.2046,3.1966,3.2033,3.2035,3.2024,3.2186,3.2212,3.2333,3.2133,3.2136,3.2138,0,3.1654,3.1697,3.1815,3.1845,3.1867,3.1921,3.1968,3.2014,3.2047,3.2049,3.2081,3.2064,3.2132,3.2074,3.2167,3.2113,3.214,3.2149,3.2153,3.2159,3.2093,3.2195,3.2371,3.2389,3.2164,3.2162,3.216,0,3.1765,3.1852,3.1933,3.1953,3.199,3.2028,3.2045,3.2074,3.2106,3.2147,3.2167,3.2215,3.2241,3.2278,3.2274,3.2232,3.2369,3.231,3.2372,3.2372,3.2401,3.2399,3.2583,3.242,3.242,3.242,3.2419,0,3.1909,3.1982,3.1983,3.2033,3.2114,3.2106,3.2185,3.2198,3.2224,3.2275,3.2251,3.23,3.2293,3.2341,3.2339,3.2416,3.2428,3.2431,3.2429,3.2433,3.2432,3.245,3.2441,3.2424,3.2423,3.2422,3.2422,0,3.2046,3.205,3.2136,3.2164,3.2173,3.2231,3.2254,3.2301,3.2307,3.2372,3.2386,3.2395,3.2451,3.2451,3.2515,3.2513,3.2607,3.2596,3.2596,3.2594,3.2655,3.2649,3.2856,3.2882,3.2703,3.2705,3.2706,0,3.2138,3.2193,3.2227,3.226,3.2279,3.2333,3.2364,3.2358,3.2392,3.2433,3.2475,3.2528,3.257,3.2661,3.2672,3.272,3.271,3.2779,3.2717,3.2718,3.271,3.2706,3.2711,3.2791,3.2793,3.2795,3.2796,0,3.23,3.2298,3.2346,3.2394,3.2432,3.247,3.2504,3.2532,3.2529,3.2569,3.2626,3.2659,3.2723,3.2776,3.2823,3.2839,3.2817,3.2816,3.2832,3.2836,3.2833,3.2835,3.2629,3.2811,3.2809,3.2808,3.2807,3.2807,3.2416,3.2464,3.2494,3.2548,3.2573,3.2605,3.2651,3.2662,3.2709,3.2762,3.2755,3.2818,3.2848,3.2908,3.2929,3.2977,3.2953,3.2977,3.2983,3.2989,3.2996,3.2826,3.2986,3.2985,3.2985,3.2985,3.2984,0,3.2576,3.2594,3.2643,3.2692,3.2734,3.271,3.2746,3.2782,3.2838,3.2869,3.2911,3.2975,3.3027,3.3042,3.3091,3.3127,3.3118,3.314,3.3137,3.3141,3.3015,3.2995,3.3146,3.3146,3.3146,3.3146,3.3146,3.3146,3.2664,3.2743,3.2745,3.2836,3.2853,3.2915,3.2938,3.2967,3.2991,3.3065,3.3107,3.3117,3.3141,3.3192,3.3237,3.324,3.3259,3.3285,3.3284,3.3166,3.315,3.3134,3.3116,3.329,3.329,3.3406,3.3407,3.3408]}]]